Flag for Canada Weather past 2 weeks in Granby, Quebec, Canada

Now
50 °F

Cool.


Feels Like: 45 °F
Forecast: 43 / 49 °F
Wind: 16 mph from Southeast

Location: Frelighsburg

Current Time: Apr 21, 2015 at 1:39:32 AM

Latest Report: Apr 21, 2015 at 1:00 AM


Visibility: N/A

Pressure: 29.61 "Hg

Humidity: 74%

Dew point: 42 °F

Location of GranbyLocation

Historic Weather in Granby — Graph

°F

Granby temperature yesterday

Maximum temperature yesterday: 50 °F (at 10:00 PM)
Minimum temperature yesterday: 38 °F (at 11:00 AM)
Average temperature yesterday: 46 °F

Past Weeks' High & Low Weather Summary

 TemperatureHumidityPressure
High70 °F (Apr 13, 4:00 PM)100% (Apr 6, 6:00 PM)30.47 "Hg (Apr 6, 6:00 PM)
Low22 °F (Apr 6, 6:00 AM)12% (Apr 16, 4:00 PM)29.47 "Hg (Apr 10, 5:00 PM)
Average43 °F57%30.10 "Hg
* Reported Midnight between Apr 5 and Apr 6 — Midnight between Apr 20 and Apr 21, Granby, Weather by CustomWeather, © 2015

Note: Actual official high and low records may vary slightly from our data, if they occured in-between our weather recording intervals... More about our weather records

Advertising

Granby weather history for previous 24 hours

 ConditionsComfort  
Time TempWeatherWind HumidityBarometerVisibility
12:00 AM
Tue, Apr 21
51 °FCool.15 mph73%29.64 "HgN/A
11:00 PM
Mon, Apr 20
50 °FCool.16 mph75%29.63 "HgN/A
10:00 PM50 °FCool.14 mph74%29.67 "HgN/A
9:00 PM50 °FCool.12 mph73%29.68 "HgN/A
8:00 PM50 °FCool.13 mph71%29.70 "HgN/A
7:00 PM50 °FCool.12 mph65%29.73 "HgN/A
6:00 PM50 °FCool.14 mph67%29.73 "HgN/A
5:00 PM50 °FCool.15 mph64%29.74 "HgN/A
4:00 PM48 °FCool.12 mph68%29.77 "HgN/A
3:00 PM45 °FCool.12 mph75%29.81 "HgN/A
2:00 PM44 °FQuite cool.15 mph68%29.83 "HgN/A
1:00 PM42 °FQuite cool.14 mph76%29.85 "HgN/A
12:00 PM39 °FChilly.13 mph86%29.89 "HgN/A
11:00 AM38 °FChilly.17 mph89%29.93 "HgN/A
10:00 AM41 °FQuite cool.13 mph67%29.97 "HgN/A
9:00 AM46 °FCool.12 mph43%29.98 "HgN/A
8:00 AM48 °FCool.10 mph45%29.98 "HgN/A
7:00 AM45 °FCool.7 mph56%30.01 "HgN/A
6:00 AM45 °FCool.9 mph58%30.01 "HgN/A
5:00 AM45 °FQuite cool.8 mph60%30.01 "HgN/A
4:00 AM46 °FCool.8 mph52%30.03 "HgN/A
3:00 AM47 °FCool.9 mph44%30.04 "HgN/A
2:00 AM47 °FCool.9 mph35%30.06 "HgN/A
1:00 AM44 °FQuite cool.8 mph42%30.09 "HgN/A
Weather by CustomWeather, © 2015

See weather overviewHow to use our weather pages